DAL1506 KVPS-KATL

Flight info

Callsign DAL1506
Flight time N/A
Altitude 31000
Route ENNTT HOBTT3
Aircraft B738/M-SDE2E3FGHIRWXY/LB1

Departure

Time 2026-04-25 15:26
Airport Destin-Fort Walton Beach Airport (KVPS)

Arrival

Time N/A
Airport Hartsfield Jackson Atlanta International Airport (KATL)
Time Latitude Longitude Altitude Speed Heading
2026-04-25 14:53 30.49474 -86.54896 90 ft 0 kts 293°
2026-04-25 15:13 30.49464 -86.54865 91 ft 4 kts 281°
2026-04-25 15:13 30.49473 -86.54835 91 ft 1 kts 181°
2026-04-25 15:13 30.49475 -86.54835 91 ft 0 kts 181°
2026-04-25 15:16 30.49473 -86.54835 91 ft 3 kts 181°
2026-04-25 15:17 30.49285 -86.54844 91 ft 21 kts 183°
2026-04-25 15:17 30.49134 -86.54896 90 ft 24 kts 208°
2026-04-25 15:17 30.48987 -86.54938 91 ft 20 kts 140°
2026-04-25 15:18 30.48911 -86.54790 92 ft 24 kts 120°
2026-04-25 15:18 30.48706 -86.54376 83 ft 35 kts 119°
2026-04-25 15:18 30.48586 -86.54134 84 ft 31 kts 120°
2026-04-25 15:19 30.48480 -86.53915 82 ft 31 kts 119°
2026-04-25 15:19 30.48445 -86.53843 77 ft 30 kts 120°
2026-04-25 15:19 30.48280 -86.53510 71 ft 27 kts 120°
2026-04-25 15:19 30.48187 -86.53325 66 ft 26 kts 120°
2026-04-25 15:20 30.48097 -86.53141 67 ft 27 kts 120°
2026-04-25 15:20 30.48000 -86.52945 62 ft 29 kts 120°
2026-04-25 15:20 30.47896 -86.52735 64 ft 31 kts 120°
2026-04-25 15:20 30.47787 -86.52514 61 ft 32 kts 120°
2026-04-25 15:21 30.47691 -86.52287 55 ft 31 kts 105°
2026-04-25 15:21 30.47646 -86.52049 56 ft 29 kts 102°
2026-04-25 15:21 30.47604 -86.51824 52 ft 28 kts 102°
2026-04-25 15:21 30.47565 -86.51611 51 ft 26 kts 101°
2026-04-25 15:22 30.47635 -86.51450 53 ft 24 kts 12°
2026-04-25 15:22 30.47794 -86.51409 52 ft 23 kts 12°
2026-04-25 15:22 30.47949 -86.51372 59 ft 22 kts 12°
2026-04-25 15:22 30.48105 -86.51333 55 ft 24 kts 12°
2026-04-25 15:23 30.48277 -86.51290 57 ft 26 kts 12°
2026-04-25 15:23 30.48463 -86.51242 58 ft 28 kts 13°
2026-04-25 15:23 30.48659 -86.51190 59 ft 30 kts 13°
2026-04-25 15:23 30.48867 -86.51139 61 ft 30 kts 12°
2026-04-25 15:24 30.49065 -86.51089 60 ft 29 kts 12°
2026-04-25 15:24 30.49253 -86.51041 59 ft 27 kts 11°
2026-04-25 15:24 30.49431 -86.50998 61 ft 25 kts 12°
2026-04-25 15:24 30.49488 -86.50983 63 ft 25 kts 12°
2026-04-25 15:25 30.49762 -86.50915 65 ft 26 kts 12°
2026-04-25 15:25 30.49879 -86.50944 68 ft 16 kts 289°
2026-04-25 15:25 30.49903 -86.51064 64 ft 15 kts 281°
2026-04-25 15:25 30.49888 -86.51146 64 ft 6 kts 199°
2026-04-25 15:26 30.49775 -86.51175 61 ft 44 kts 192°
2026-04-25 15:26 30.49201 -86.51317 60 ft 121 kts 192°
2026-04-25 15:26 30.48162 -86.51565 168 ft 174 kts 192°
2026-04-25 15:26 30.46988 -86.51778 1093 ft 172 kts 183°
2026-04-25 15:27 30.45747 -86.51437 1757 ft 198 kts 154°
2026-04-25 15:27 30.44685 -86.50401 2602 ft 197 kts 129°
2026-04-25 15:27 30.44024 -86.47792 4724 ft 170 kts 85°
2026-04-25 15:28 30.44278 -86.46353 5077 ft 196 kts 72°
2026-04-25 15:28 30.44810 -86.44854 5722 ft 200 kts 65°
2026-04-25 15:28 30.45112 -86.43296 6457 ft 208 kts 91°
2026-04-25 15:28 30.44782 -86.41572 6669 ft 231 kts 114°
2026-04-25 15:29 30.44095 -86.39792 6863 ft 254 kts 116°
2026-04-25 15:29 30.43316 -86.37847 7035 ft 279 kts 116°
2026-04-25 15:29 30.42466 -86.35740 7521 ft 294 kts 116°
2026-04-25 15:29 30.41590 -86.33581 8340 ft 297 kts 116°
2026-04-25 15:30 30.40705 -86.31406 9169 ft 301 kts 116°
2026-04-25 15:30 30.39802 -86.29201 9954 ft 305 kts 116°
2026-04-25 15:30 30.38872 -86.26943 10466 ft 320 kts 116°
2026-04-25 15:30 30.37872 -86.24520 10662 ft 346 kts 116°
2026-04-25 15:31 30.36819 -86.21905 10827 ft 370 kts 111°
2026-04-25 15:31 30.36342 -86.18986 11251 ft 381 kts 89°
2026-04-25 15:31 30.36779 -86.15957 11838 ft 384 kts 68°
2026-04-25 15:31 30.38081 -86.13291 12539 ft 381 kts 46°
2026-04-25 15:32 30.40076 -86.11315 13209 ft 377 kts 26°
2026-04-25 15:32 30.42502 -86.10266 13893 ft 372 kts
2026-04-25 15:32 30.45061 -86.10140 14508 ft 367 kts 351°
2026-04-25 15:33 30.50140 -86.10976 15754 ft 373 kts 347°
2026-04-25 15:33 30.52715 -86.11456 16385 ft 377 kts 348°
2026-04-25 15:33 30.55313 -86.11939 17025 ft 380 kts 348°
2026-04-25 15:33 30.57937 -86.12416 17664 ft 383 kts 348°
2026-04-25 15:34 30.60583 -86.12888 18245 ft 387 kts 348°
2026-04-25 15:34 30.63254 -86.13358 18742 ft 390 kts 348°
2026-04-25 15:34 30.65952 -86.13828 19251 ft 394 kts 348°
2026-04-25 15:34 30.66871 -86.13987 19422 ft 395 kts 348°
2026-04-25 15:35 30.74184 -86.15247 20765 ft 404 kts 349°
2026-04-25 15:35 30.76979 -86.15728 21240 ft 407 kts 349°
2026-04-25 15:35 30.79790 -86.16212 21698 ft 410 kts 349°
2026-04-25 15:36 30.85490 -86.17196 22568 ft 417 kts 349°
2026-04-25 15:36 30.88374 -86.17694 23007 ft 420 kts 349°
2026-04-25 15:36 30.91269 -86.18194 23432 ft 422 kts 349°
2026-04-25 15:37 30.94191 -86.18699 23789 ft 425 kts 349°
2026-04-25 15:37 30.97121 -86.19205 24142 ft 428 kts 349°
2026-04-25 15:37 31.00081 -86.19717 24500 ft 430 kts 349°
2026-04-25 15:37 31.03049 -86.20231 24847 ft 433 kts 349°
2026-04-25 15:38 31.05025 -86.20574 25088 ft 434 kts 349°
2026-04-25 15:38 31.09038 -86.21270 25543 ft 437 kts 349°
2026-04-25 15:38 31.11032 -86.21616 25756 ft 439 kts 349°
2026-04-25 15:38 31.15055 -86.22315 26232 ft 441 kts 349°
2026-04-25 15:39 31.18078 -86.22839 26693 ft 439 kts 349°
2026-04-25 15:39 31.21104 -86.23367 26926 ft 440 kts 349°
2026-04-25 15:39 31.24132 -86.23896 26925 ft 439 kts 349°
2026-04-25 15:39 31.26170 -86.24250 26930 ft 438 kts 349°
2026-04-25 15:40 31.30162 -86.24944 26938 ft 438 kts 349°
2026-04-25 15:40 31.31181 -86.25122 26940 ft 438 kts 349°
2026-04-25 15:40 31.36199 -86.25997 26934 ft 439 kts 349°
2026-04-25 15:40 31.38203 -86.26347 26926 ft 439 kts 349°
2026-04-25 15:41 31.41216 -86.26872 26917 ft 438 kts 349°
2026-04-25 15:41 31.44228 -86.27398 26913 ft 438 kts 349°
2026-04-25 15:41 31.47250 -86.27926 26902 ft 438 kts 349°
2026-04-25 15:41 31.50259 -86.28453 26894 ft 437 kts 349°
2026-04-25 15:42 31.53273 -86.28978 26900 ft 437 kts 349°
2026-04-25 15:42 31.56286 -86.29508 26894 ft 438 kts 349°
2026-04-25 15:42 31.59301 -86.30039 26887 ft 438 kts 349°
2026-04-25 15:42 31.62310 -86.30567 26886 ft 439 kts 349°
2026-04-25 15:43 31.65332 -86.31086 26884 ft 439 kts 352°
2026-04-25 15:43 31.68391 -86.30954 26896 ft 444 kts
2026-04-25 15:43 31.71347 -86.29830 26883 ft 452 kts 24°
2026-04-25 15:43 31.74006 -86.27828 26934 ft 455 kts 32°
2026-04-25 15:44 31.76601 -86.25679 26929 ft 457 kts 32°
2026-04-25 15:44 31.79193 -86.23525 26926 ft 456 kts 32°
2026-04-25 15:44 31.81793 -86.21380 26929 ft 456 kts 32°
2026-04-25 15:44 31.84392 -86.19252 26933 ft 455 kts 32°
2026-04-25 15:45 31.86995 -86.17134 26948 ft 454 kts 32°
2026-04-25 15:45 31.89563 -86.15051 26951 ft 454 kts 32°
2026-04-25 15:45 31.92159 -86.12946 26950 ft 454 kts 32°
2026-04-25 15:45 31.93919 -86.11520 26950 ft 454 kts 32°
2026-04-25 15:46 31.97362 -86.08728 26948 ft 454 kts 32°
2026-04-25 15:46 31.99967 -86.06613 26950 ft 455 kts 32°
2026-04-25 15:46 32.02574 -86.04494 26943 ft 455 kts 32°